Year,Month,Day,Hour,Minute,Value (Times are PST for temperature in C)
2008,08,15,00,00,24.30
2008,08,15,00,01,24.30
2008,08,15,00,02,24.30
2008,08,15,00,03,24.30
2008,08,15,00,04,24.30
2008,08,15,00,05,24.30
2008,08,15,00,06,24.30
2008,08,15,00,07,24.30
2008,08,15,00,08,24.40
2008,08,15,00,09,24.40
2008,08,15,00,10,24.40
2008,08,15,00,11,24.40
2008,08,15,00,12,24.50
2008,08,15,00,13,24.50
2008,08,15,00,14,24.60
2008,08,15,00,15,24.50
2008,08,15,00,16,24.60
2008,08,15,00,17,24.60
2008,08,15,00,18,24.60
2008,08,15,00,19,24.70
2008,08,15,00,20,24.70
2008,08,15,00,21,24.70
2008,08,15,00,22,24.70
2008,08,15,00,23,24.70
2008,08,15,00,24,24.70
2008,08,15,00,25,24.70
2008,08,15,00,26,24.70
2008,08,15,00,27,24.70
2008,08,15,00,28,24.70
2008,08,15,00,29,24.70
2008,08,15,00,30,24.60
2008,08,15,00,31,24.60
2008,08,15,00,32,24.60
2008,08,15,00,33,24.60
2008,08,15,00,34,24.50
2008,08,15,00,35,24.50
2008,08,15,00,36,24.50
2008,08,15,00,37,24.50
2008,08,15,00,38,24.40
2008,08,15,00,39,24.40
2008,08,15,00,40,24.40
2008,08,15,00,41,24.40
2008,08,15,00,42,24.40
2008,08,15,00,43,24.30
2008,08,15,00,44,24.30
2008,08,15,00,45,24.30
2008,08,15,00,46,24.20
2008,08,15,00,47,24.20
2008,08,15,00,48,24.20
2008,08,15,00,49,24.20
2008,08,15,00,50,24.10
2008,08,15,00,51,24.10
2008,08,15,00,52,24.10
2008,08,15,00,53,24.10
2008,08,15,00,54,24.10
2008,08,15,00,55,24.10
2008,08,15,00,56,24.10
2008,08,15,00,57,24.10
2008,08,15,00,58,24.10
2008,08,15,00,59,24.00
2008,08,15,01,00,24.00
2008,08,15,01,01,23.90
2008,08,15,01,02,23.90
2008,08,15,01,03,23.90
2008,08,15,01,04,23.80
2008,08,15,01,05,23.80
2008,08,15,01,06,23.80
2008,08,15,01,07,23.80
2008,08,15,01,08,23.80
2008,08,15,01,09,23.80
2008,08,15,01,10,23.80
2008,08,15,01,11,23.80
2008,08,15,01,12,23.70
2008,08,15,01,13,23.70
2008,08,15,01,14,23.70
2008,08,15,01,15,23.70
2008,08,15,01,16,23.60
2008,08,15,01,17,23.60
2008,08,15,01,18,23.60
2008,08,15,01,19,23.60
2008,08,15,01,20,23.60
2008,08,15,01,21,23.60
2008,08,15,01,22,23.50
2008,08,15,01,23,23.50
2008,08,15,01,24,23.50
2008,08,15,01,25,23.50
2008,08,15,01,26,23.40
2008,08,15,01,27,23.40
2008,08,15,01,28,23.40
2008,08,15,01,29,23.40
2008,08,15,01,30,23.30
2008,08,15,01,31,23.30
2008,08,15,01,32,23.20
2008,08,15,01,33,23.20
2008,08,15,01,34,23.20
2008,08,15,01,35,23.10
2008,08,15,01,36,23.10
2008,08,15,01,37,23.00
2008,08,15,01,38,23.00
2008,08,15,01,39,23.00
2008,08,15,01,40,23.00
2008,08,15,01,41,23.00
2008,08,15,01,42,23.00
2008,08,15,01,43,23.00
2008,08,15,01,44,23.00
2008,08,15,01,45,22.90
2008,08,15,01,46,22.90
2008,08,15,01,47,22.90
2008,08,15,01,48,22.90
2008,08,15,01,49,22.90
2008,08,15,01,50,23.00
2008,08,15,01,51,23.00
2008,08,15,01,52,23.00
2008,08,15,01,53,23.10
2008,08,15,01,54,23.10
2008,08,15,01,55,23.10
2008,08,15,01,56,23.10
2008,08,15,01,57,23.10
2008,08,15,01,58,23.10
2008,08,15,01,59,23.10
2008,08,15,02,00,23.10
2008,08,15,02,01,23.00
2008,08,15,02,02,23.00
2008,08,15,02,03,23.00
2008,08,15,02,04,23.00
2008,08,15,02,05,23.00
2008,08,15,02,06,23.00
2008,08,15,02,07,23.00
2008,08,15,02,08,22.90
2008,08,15,02,09,22.90
2008,08,15,02,10,22.90
2008,08,15,02,11,22.90
2008,08,15,02,12,22.80
2008,08,15,02,13,22.80
2008,08,15,02,14,22.80
2008,08,15,02,15,22.80
2008,08,15,02,16,22.80
2008,08,15,02,17,22.80
2008,08,15,02,18,22.80
2008,08,15,02,19,22.80
2008,08,15,02,20,22.80
2008,08,15,02,21,22.80
2008,08,15,02,22,22.80
2008,08,15,02,23,22.80
2008,08,15,02,24,22.80
2008,08,15,02,25,22.80
2008,08,15,02,26,22.80
2008,08,15,02,27,22.80
2008,08,15,02,28,22.70
2008,08,15,02,29,22.70
2008,08,15,02,30,22.80
2008,08,15,02,31,22.80
2008,08,15,02,32,22.70
2008,08,15,02,33,22.80
2008,08,15,02,34,22.80
2008,08,15,02,35,22.80
2008,08,15,02,36,22.80
2008,08,15,02,37,22.80
2008,08,15,02,38,22.80
2008,08,15,02,39,22.80
2008,08,15,02,40,22.80
2008,08,15,02,41,22.80
2008,08,15,02,42,22.80
2008,08,15,02,43,22.80
2008,08,15,02,44,22.80
2008,08,15,02,45,22.80
2008,08,15,02,46,22.80
2008,08,15,02,47,22.80
2008,08,15,02,48,22.70
2008,08,15,02,49,22.70
2008,08,15,02,50,22.70
2008,08,15,02,51,22.60
2008,08,15,02,52,22.60
2008,08,15,02,53,22.50
2008,08,15,02,54,22.50
2008,08,15,02,55,22.40
2008,08,15,02,56,22.40
2008,08,15,02,57,22.40
2008,08,15,02,58,22.30
2008,08,15,02,59,22.30
2008,08,15,03,00,22.30
2008,08,15,03,01,22.20
2008,08,15,03,02,22.20
2008,08,15,03,03,22.20
2008,08,15,03,04,22.20
2008,08,15,03,05,22.20
2008,08,15,03,06,22.10
2008,08,15,03,07,22.10
2008,08,15,03,08,22.10
2008,08,15,03,09,22.00
2008,08,15,03,10,22.00
2008,08,15,03,11,21.90
2008,08,15,03,12,21.90
2008,08,15,03,13,21.90
2008,08,15,03,14,21.90
2008,08,15,03,15,21.80
2008,08,15,03,16,21.80
2008,08,15,03,17,21.80
2008,08,15,03,18,21.80
2008,08,15,03,19,21.80
2008,08,15,03,20,21.70
2008,08,15,03,21,21.60
2008,08,15,03,22,21.60
2008,08,15,03,23,21.50
2008,08,15,03,24,21.50
2008,08,15,03,25,21.40
2008,08,15,03,26,21.40
2008,08,15,03,27,21.30
2008,08,15,03,28,21.30
2008,08,15,03,29,21.30
2008,08,15,03,30,21.30
2008,08,15,03,31,21.20
2008,08,15,03,32,21.20
2008,08,15,03,33,21.20
2008,08,15,03,34,21.20
2008,08,15,03,35,21.20
2008,08,15,03,36,21.10
2008,08,15,03,37,21.10
2008,08,15,03,38,21.10
2008,08,15,03,39,21.10
2008,08,15,03,40,21.10
2008,08,15,03,41,21.10
2008,08,15,03,42,21.00
2008,08,15,03,43,21.00
2008,08,15,03,44,21.00
2008,08,15,03,45,21.00
2008,08,15,03,46,21.00
2008,08,15,03,47,21.00
2008,08,15,03,48,21.00
2008,08,15,03,49,21.00
2008,08,15,03,50,21.00
2008,08,15,03,51,21.00
2008,08,15,03,52,21.10
2008,08,15,03,53,21.10
2008,08,15,03,54,21.10
2008,08,15,03,55,21.10
2008,08,15,03,56,21.10
2008,08,15,03,57,21.10
2008,08,15,03,58,21.10
2008,08,15,03,59,21.10
2008,08,15,04,00,21.10
2008,08,15,04,01,21.00
2008,08,15,04,02,21.00
2008,08,15,04,03,21.00
2008,08,15,04,04,20.90
2008,08,15,04,05,20.90
2008,08,15,04,06,20.90
2008,08,15,04,07,20.90
2008,08,15,04,08,20.90
2008,08,15,04,09,20.90
2008,08,15,04,10,20.90
2008,08,15,04,11,20.90
2008,08,15,04,12,20.90
2008,08,15,04,13,20.90
2008,08,15,04,14,20.90
2008,08,15,04,15,20.90
2008,08,15,04,16,20.90
2008,08,15,04,17,20.90
2008,08,15,04,18,20.90
2008,08,15,04,19,20.90
2008,08,15,04,20,20.90
2008,08,15,04,21,20.90
2008,08,15,04,22,20.90
2008,08,15,04,23,20.90
2008,08,15,04,24,20.90
2008,08,15,04,25,20.90
2008,08,15,04,26,20.90
2008,08,15,04,27,20.90
2008,08,15,04,28,20.80
2008,08,15,04,29,20.80
2008,08,15,04,30,20.80
2008,08,15,04,31,20.80
2008,08,15,04,32,20.70
2008,08,15,04,33,20.70
2008,08,15,04,34,20.70
2008,08,15,04,35,20.70
2008,08,15,04,36,20.70
2008,08,15,04,37,20.70
2008,08,15,04,38,20.70
2008,08,15,04,39,20.70
2008,08,15,04,40,20.70
2008,08,15,04,41,20.70
2008,08,15,04,42,20.70
2008,08,15,04,43,20.70
2008,08,15,04,44,20.70
2008,08,15,04,45,20.70
2008,08,15,04,46,20.70
2008,08,15,04,47,20.70
2008,08,15,04,48,20.70
2008,08,15,04,49,20.80
2008,08,15,04,50,20.80
2008,08,15,04,51,20.80
2008,08,15,04,52,20.80
2008,08,15,04,53,20.80
2008,08,15,04,54,20.80
2008,08,15,04,55,20.80
2008,08,15,04,56,20.80
2008,08,15,04,57,20.80
2008,08,15,04,58,20.80
2008,08,15,04,59,20.80
2008,08,15,05,00,20.80
2008,08,15,05,01,20.80
2008,08,15,05,02,20.70
2008,08,15,05,03,20.70
2008,08,15,05,04,20.70
2008,08,15,05,05,20.70
2008,08,15,05,06,20.70
2008,08,15,05,07,20.60
2008,08,15,05,08,20.60
2008,08,15,05,09,20.60
2008,08,15,05,10,20.50
2008,08,15,05,11,20.50
2008,08,15,05,12,20.50
2008,08,15,05,13,20.50
2008,08,15,05,14,20.40
2008,08,15,05,15,20.40
2008,08,15,05,16,20.50
2008,08,15,05,17,20.50
2008,08,15,05,18,20.60
2008,08,15,05,19,20.60
2008,08,15,05,20,20.60
2008,08,15,05,21,20.60
2008,08,15,05,22,20.60
2008,08,15,05,23,20.60
2008,08,15,05,24,20.60
2008,08,15,05,25,20.60
2008,08,15,05,26,20.50
2008,08,15,05,27,20.50
2008,08,15,05,28,20.50
2008,08,15,05,29,20.50
2008,08,15,05,30,20.40
2008,08,15,05,31,20.40
2008,08,15,05,32,20.40
2008,08,15,05,33,20.40
2008,08,15,05,34,20.40
2008,08,15,05,35,20.40
2008,08,15,05,36,20.30
2008,08,15,05,37,20.30
2008,08,15,05,38,20.30
2008,08,15,05,39,20.30
2008,08,15,05,40,20.30
2008,08,15,05,41,20.30
2008,08,15,05,42,20.20
2008,08,15,05,43,20.20
2008,08,15,05,44,20.20
2008,08,15,05,45,20.20
2008,08,15,05,46,20.20
2008,08,15,05,47,20.20
2008,08,15,05,48,20.20
2008,08,15,05,49,20.20
2008,08,15,05,50,20.20
2008,08,15,05,51,20.20
2008,08,15,05,52,20.20
2008,08,15,05,53,20.20
2008,08,15,05,54,20.20
2008,08,15,05,55,20.20
2008,08,15,05,56,20.20
2008,08,15,05,57,20.20
2008,08,15,05,58,20.20
2008,08,15,05,59,20.30
2008,08,15,06,00,20.30
2008,08,15,06,01,20.30
2008,08,15,06,02,20.30
2008,08,15,06,03,20.30
2008,08,15,06,04,20.30
2008,08,15,06,05,20.30
2008,08,15,06,06,20.30
2008,08,15,06,07,20.30
2008,08,15,06,08,20.30
2008,08,15,06,09,20.30
2008,08,15,06,10,20.30
2008,08,15,06,11,20.40
2008,08,15,06,12,20.40
2008,08,15,06,13,20.40
2008,08,15,06,14,20.40
2008,08,15,06,15,20.50
2008,08,15,06,16,20.50
2008,08,15,06,17,20.60
2008,08,15,06,18,20.60
2008,08,15,06,19,20.60
2008,08,15,06,20,20.60
2008,08,15,06,21,20.60
2008,08,15,06,22,20.60
2008,08,15,06,23,20.60
2008,08,15,06,24,20.60
2008,08,15,06,25,20.60
2008,08,15,06,26,20.60
2008,08,15,06,27,20.60
2008,08,15,06,28,20.60
2008,08,15,06,29,20.60
2008,08,15,06,30,20.60
2008,08,15,06,31,20.60
2008,08,15,06,32,20.60
2008,08,15,06,33,20.60
2008,08,15,06,34,20.60
2008,08,15,06,35,20.50
2008,08,15,06,36,20.50
2008,08,15,06,37,20.50
2008,08,15,06,38,20.40
2008,08,15,06,39,20.40
2008,08,15,06,40,20.40
2008,08,15,06,41,20.40
2008,08,15,06,42,20.30
2008,08,15,06,43,20.30
2008,08,15,06,44,20.30
2008,08,15,06,45,20.30
2008,08,15,06,46,20.30
2008,08,15,06,47,20.30
2008,08,15,06,48,20.20
2008,08,15,06,49,20.20
2008,08,15,06,50,20.20
2008,08,15,06,51,20.20
2008,08,15,06,52,20.20
2008,08,15,06,53,20.10
2008,08,15,06,54,20.10
2008,08,15,06,55,20.10
2008,08,15,06,56,20.10
2008,08,15,06,57,20.10
2008,08,15,06,58,20.00
2008,08,15,06,59,20.00
2008,08,15,07,00,20.00
2008,08,15,07,01,20.00
2008,08,15,07,02,20.00
2008,08,15,07,03,20.00
2008,08,15,07,04,20.00
2008,08,15,07,05,20.00
2008,08,15,07,06,20.00
2008,08,15,07,07,20.00
2008,08,15,07,08,20.00
2008,08,15,07,09,20.10
2008,08,15,07,10,20.10
2008,08,15,07,11,20.10
2008,08,15,07,12,20.10
2008,08,15,07,13,20.10
2008,08,15,07,14,20.10
2008,08,15,07,15,20.10
2008,08,15,07,16,20.10
2008,08,15,07,17,20.10
2008,08,15,07,18,20.10
2008,08,15,07,19,20.10
2008,08,15,07,20,20.20
2008,08,15,07,21,20.20
2008,08,15,07,22,20.20
2008,08,15,07,23,20.20
2008,08,15,07,24,20.20
2008,08,15,07,25,20.20
2008,08,15,07,26,20.20
2008,08,15,07,27,20.20
2008,08,15,07,28,20.20
2008,08,15,07,29,20.20
2008,08,15,07,30,20.20
2008,08,15,07,31,20.20
2008,08,15,07,32,20.30
2008,08,15,07,33,20.30
2008,08,15,07,34,20.30
2008,08,15,07,35,20.30
2008,08,15,07,36,20.30
2008,08,15,07,37,20.30
2008,08,15,07,38,20.30
2008,08,15,07,39,20.30
2008,08,15,07,40,20.30
2008,08,15,07,41,20.40
2008,08,15,07,42,20.40
2008,08,15,07,43,20.40
2008,08,15,07,44,20.40
2008,08,15,07,45,20.40
2008,08,15,07,46,20.50
2008,08,15,07,47,20.50
2008,08,15,07,48,20.60
2008,08,15,07,49,20.60
2008,08,15,07,50,20.60
2008,08,15,07,51,20.60
2008,08,15,07,52,20.70
2008,08,15,07,53,20.70
2008,08,15,07,54,20.80
2008,08,15,07,55,20.80
2008,08,15,07,56,20.80
2008,08,15,07,57,20.80
2008,08,15,07,58,20.90
2008,08,15,07,59,20.90
2008,08,15,08,00,20.90
2008,08,15,08,01,21.00
2008,08,15,08,02,21.00
2008,08,15,08,03,21.10
2008,08,15,08,04,21.20
2008,08,15,08,05,21.20
2008,08,15,08,06,21.30
2008,08,15,08,07,21.30
2008,08,15,08,08,21.40
2008,08,15,08,09,21.40
2008,08,15,08,10,21.40
2008,08,15,08,11,21.50
2008,08,15,08,12,21.50
2008,08,15,08,13,21.60
2008,08,15,08,14,21.60
2008,08,15,08,15,21.60
2008,08,15,08,16,21.60
2008,08,15,08,17,21.70
2008,08,15,08,18,21.70
2008,08,15,08,19,21.70
2008,08,15,08,20,21.70
2008,08,15,08,21,21.70
2008,08,15,08,22,21.70
2008,08,15,08,23,21.70
2008,08,15,08,24,21.60
2008,08,15,08,25,21.60
2008,08,15,08,26,21.60
2008,08,15,08,27,21.70
2008,08,15,08,28,21.70
2008,08,15,08,29,21.70
2008,08,15,08,30,21.80
2008,08,15,08,31,21.80
2008,08,15,08,32,21.80
2008,08,15,08,33,21.80
2008,08,15,08,34,21.90
2008,08,15,08,35,21.90
2008,08,15,08,36,21.90
2008,08,15,08,37,21.90
2008,08,15,08,38,21.90
2008,08,15,08,39,21.90
2008,08,15,08,40,21.90
2008,08,15,08,41,21.90
2008,08,15,08,42,21.90
2008,08,15,08,43,21.90
2008,08,15,08,44,21.90
2008,08,15,08,45,21.90
2008,08,15,08,46,21.90
2008,08,15,08,47,21.90
2008,08,15,08,48,21.90
2008,08,15,08,49,21.90
2008,08,15,08,50,22.00
2008,08,15,08,51,22.00
2008,08,15,08,52,22.00
2008,08,15,08,53,22.00
2008,08,15,08,54,22.00
2008,08,15,08,55,22.00
2008,08,15,08,56,22.10
2008,08,15,08,57,22.10
2008,08,15,08,58,22.10
2008,08,15,08,59,22.10
2008,08,15,09,00,22.10
2008,08,15,09,01,22.10
2008,08,15,09,02,22.10
2008,08,15,09,03,22.20
2008,08,15,09,04,22.20
2008,08,15,09,05,22.20
2008,08,15,09,06,22.20
2008,08,15,09,07,22.30
2008,08,15,09,08,22.30
2008,08,15,09,09,22.30
2008,08,15,09,10,22.40
2008,08,15,09,11,22.50
2008,08,15,09,12,22.50
2008,08,15,09,13,22.60
2008,08,15,09,14,22.70
2008,08,15,09,15,22.70
2008,08,15,09,16,22.70
2008,08,15,09,17,22.80
2008,08,15,09,18,22.80
2008,08,15,09,19,22.90
2008,08,15,09,20,22.90
2008,08,15,09,21,22.90
2008,08,15,09,22,23.00
2008,08,15,09,23,23.00
2008,08,15,09,24,23.00
2008,08,15,09,25,23.00
2008,08,15,09,26,23.10
2008,08,15,09,27,23.10
2008,08,15,09,28,23.20
2008,08,15,09,29,23.20
2008,08,15,09,30,23.10
2008,08,15,09,31,23.00
2008,08,15,09,32,22.80
2008,08,15,09,33,22.70
2008,08,15,09,34,22.60
2008,08,15,09,35,22.50
2008,08,15,09,36,22.40
2008,08,15,09,37,22.20
2008,08,15,09,38,22.20
2008,08,15,09,39,22.20
2008,08,15,09,40,22.20
2008,08,15,09,41,22.20
2008,08,15,09,42,22.20
2008,08,15,09,43,22.20
2008,08,15,09,44,22.10
2008,08,15,09,45,22.10
2008,08,15,09,46,22.00
2008,08,15,09,47,22.00
2008,08,15,09,48,21.90
2008,08,15,09,49,22.00
2008,08,15,09,50,22.00
2008,08,15,09,51,22.00
2008,08,15,09,52,22.10
2008,08,15,09,53,22.00
2008,08,15,09,54,22.00
2008,08,15,09,55,22.00
2008,08,15,09,56,22.00
2008,08,15,09,57,22.00
2008,08,15,09,58,22.00
2008,08,15,09,59,22.00
2008,08,15,10,00,21.90
2008,08,15,10,01,21.90
2008,08,15,10,02,21.90
2008,08,15,10,03,21.80
2008,08,15,10,04,21.80
2008,08,15,10,05,21.80
2008,08,15,10,06,21.70
2008,08,15,10,07,21.70
2008,08,15,10,08,21.80
2008,08,15,10,09,21.80
2008,08,15,10,10,21.80
2008,08,15,10,11,21.80
2008,08,15,10,12,21.90
2008,08,15,10,13,22.00
2008,08,15,10,14,22.00
2008,08,15,10,15,22.10
2008,08,15,10,16,22.10
2008,08,15,10,17,22.10
2008,08,15,10,18,22.10
2008,08,15,10,19,22.10
2008,08,15,10,20,22.10
2008,08,15,10,21,22.10
2008,08,15,10,22,22.10
2008,08,15,10,23,22.10
2008,08,15,10,24,22.10
2008,08,15,10,25,22.00
2008,08,15,10,26,22.00
2008,08,15,10,27,21.90
2008,08,15,10,28,21.90
2008,08,15,10,29,21.90
2008,08,15,10,30,21.90
2008,08,15,10,31,21.90
2008,08,15,10,32,21.80
2008,08,15,10,33,21.80
2008,08,15,10,34,21.70
2008,08,15,10,35,21.70
2008,08,15,10,36,21.70
2008,08,15,10,37,21.70
2008,08,15,10,38,21.70
2008,08,15,10,39,21.70
2008,08,15,10,40,21.70
2008,08,15,10,41,21.70
2008,08,15,10,42,21.70
2008,08,15,10,43,21.70
2008,08,15,10,44,21.70
2008,08,15,10,45,21.70
2008,08,15,10,46,21.70
2008,08,15,10,47,21.80
2008,08,15,10,48,21.80
2008,08,15,10,49,21.80
2008,08,15,10,50,21.80
2008,08,15,10,51,21.70
2008,08,15,10,52,21.70
2008,08,15,10,53,21.70
2008,08,15,10,54,21.60
2008,08,15,10,55,21.60
2008,08,15,10,56,21.60
2008,08,15,10,57,21.50
2008,08,15,10,58,21.40
2008,08,15,10,59,21.40
2008,08,15,11,00,21.30
2008,08,15,11,01,21.30
2008,08,15,11,02,21.30
2008,08,15,11,03,21.30
2008,08,15,11,04,21.30
2008,08,15,11,05,21.30
2008,08,15,11,06,21.40
2008,08,15,11,07,21.40
2008,08,15,11,08,21.50
2008,08,15,11,09,21.50
2008,08,15,11,10,21.60
2008,08,15,11,11,21.60
2008,08,15,11,12,21.60
2008,08,15,11,13,21.50
2008,08,15,11,14,21.50
2008,08,15,11,15,21.50
2008,08,15,11,16,21.50
2008,08,15,11,17,21.60
2008,08,15,11,18,21.60
2008,08,15,11,19,21.70
2008,08,15,11,20,21.80
2008,08,15,11,21,21.80
2008,08,15,11,22,21.80
2008,08,15,11,23,21.80
2008,08,15,11,24,21.80
2008,08,15,11,25,21.80
2008,08,15,11,26,21.80
2008,08,15,11,27,21.90
2008,08,15,11,28,21.80
2008,08,15,11,29,21.90
2008,08,15,11,30,21.90
2008,08,15,11,31,21.90
2008,08,15,11,32,21.90
2008,08,15,11,33,21.80
2008,08,15,11,34,21.80
2008,08,15,11,35,21.70
2008,08,15,11,36,21.60
2008,08,15,11,37,21.50
2008,08,15,11,38,21.50
2008,08,15,11,39,21.40
2008,08,15,11,40,21.40
2008,08,15,11,41,21.30
2008,08,15,11,42,21.30
2008,08,15,11,43,21.30
2008,08,15,11,44,21.30
2008,08,15,11,45,21.20
2008,08,15,11,46,21.20
2008,08,15,11,47,21.20
2008,08,15,11,48,21.20
2008,08,15,11,49,21.30
2008,08,15,11,50,21.30
2008,08,15,11,51,21.40
2008,08,15,11,52,21.50
2008,08,15,11,53,21.60
2008,08,15,11,54,21.70
2008,08,15,11,55,21.70
2008,08,15,11,56,21.80
2008,08,15,11,57,21.80
2008,08,15,11,58,21.80
2008,08,15,11,59,21.90
2008,08,15,12,00,21.90
2008,08,15,12,01,21.80
2008,08,15,12,02,21.80
2008,08,15,12,03,21.70
2008,08,15,12,04,21.60
2008,08,15,12,05,21.60
2008,08,15,12,06,21.50
2008,08,15,12,07,21.50
2008,08,15,12,08,21.40
2008,08,15,12,09,21.40
2008,08,15,12,10,21.40
2008,08,15,12,11,21.30
2008,08,15,12,12,21.30
2008,08,15,12,13,21.30
2008,08,15,12,14,21.30
2008,08,15,12,15,21.30
2008,08,15,12,16,21.30
2008,08,15,12,17,21.30
2008,08,15,12,18,21.30
2008,08,15,12,19,21.30
2008,08,15,12,20,21.30
2008,08,15,12,21,21.30
2008,08,15,12,22,21.30
2008,08,15,12,23,21.30
2008,08,15,12,24,21.30
2008,08,15,12,25,21.30
2008,08,15,12,26,21.30
2008,08,15,12,27,21.30
2008,08,15,12,28,21.20
2008,08,15,12,29,21.20
2008,08,15,12,30,21.10
2008,08,15,12,31,21.00
2008,08,15,12,32,21.00
2008,08,15,12,33,20.90
2008,08,15,12,34,20.90
2008,08,15,12,35,20.80
2008,08,15,12,36,20.80
2008,08,15,12,37,20.80
2008,08,15,12,38,20.80
2008,08,15,12,39,20.80
2008,08,15,12,40,20.80
2008,08,15,12,41,20.80
2008,08,15,12,42,20.80
2008,08,15,12,43,20.80
2008,08,15,12,44,20.80
2008,08,15,12,45,20.80
2008,08,15,12,46,20.80
2008,08,15,12,47,20.80
2008,08,15,12,48,20.90
2008,08,15,12,49,21.00
2008,08,15,12,50,21.10
2008,08,15,12,51,21.10
2008,08,15,12,52,21.30
2008,08,15,12,53,21.40
2008,08,15,12,54,21.50
2008,08,15,12,55,21.60
2008,08,15,12,56,21.80
2008,08,15,12,57,21.80
2008,08,15,12,58,22.00
2008,08,15,12,59,22.10
2008,08,15,13,00,22.20
2008,08,15,13,01,22.20
2008,08,15,13,02,22.30
2008,08,15,13,03,22.30
2008,08,15,13,04,22.30
2008,08,15,13,05,22.40
2008,08,15,13,06,22.40
2008,08,15,13,07,22.40
2008,08,15,13,08,22.40
2008,08,15,13,09,22.50
2008,08,15,13,10,22.50
2008,08,15,13,11,22.60
2008,08,15,13,12,22.70
2008,08,15,13,13,22.80
2008,08,15,13,14,22.80
2008,08,15,13,15,22.90
2008,08,15,13,16,23.00
2008,08,15,13,17,23.00
2008,08,15,13,18,23.10
2008,08,15,13,19,23.20
2008,08,15,13,20,23.20
2008,08,15,13,21,23.30
2008,08,15,13,22,23.40
2008,08,15,13,23,23.40
2008,08,15,13,24,23.40
2008,08,15,13,25,23.30
2008,08,15,13,26,23.30
2008,08,15,13,27,23.30
2008,08,15,13,28,23.30
2008,08,15,13,29,23.40
2008,08,15,13,30,23.30
2008,08,15,13,31,23.30
2008,08,15,13,32,23.30
2008,08,15,13,33,23.30
2008,08,15,13,34,23.30
2008,08,15,13,35,23.30
2008,08,15,13,36,23.30
2008,08,15,13,37,23.20
2008,08,15,13,38,23.20
2008,08,15,13,39,23.20
2008,08,15,13,40,23.20
2008,08,15,13,41,23.20
2008,08,15,13,42,23.20
2008,08,15,13,43,23.20
2008,08,15,13,44,23.20
2008,08,15,13,45,23.20
2008,08,15,13,46,23.20
2008,08,15,13,47,23.20
2008,08,15,13,48,23.30
2008,08,15,13,49,23.30
2008,08,15,13,50,23.40
2008,08,15,13,51,23.40
2008,08,15,13,52,23.50
2008,08,15,13,53,23.60
2008,08,15,13,54,23.60
2008,08,15,13,55,23.60
2008,08,15,13,56,23.60
2008,08,15,13,57,23.60
2008,08,15,13,58,23.60
2008,08,15,13,59,23.50
2008,08,15,14,00,23.50
2008,08,15,14,01,23.40
2008,08,15,14,02,23.40
2008,08,15,14,03,23.30
2008,08,15,14,04,23.30
2008,08,15,14,05,23.30
2008,08,15,14,06,23.30
2008,08,15,14,07,23.30
2008,08,15,14,08,23.40
2008,08,15,14,09,23.50
2008,08,15,14,10,23.50
2008,08,15,14,11,23.60
2008,08,15,14,12,23.70
2008,08,15,14,13,23.70
2008,08,15,14,14,23.80
2008,08,15,14,15,23.80
2008,08,15,14,16,23.80
2008,08,15,14,17,23.90
2008,08,15,14,18,23.90
2008,08,15,14,19,23.80
2008,08,15,14,20,23.80
2008,08,15,14,21,23.70
2008,08,15,14,22,23.60
2008,08,15,14,23,23.60
2008,08,15,14,24,23.60
2008,08,15,14,25,23.50
2008,08,15,14,26,23.50
2008,08,15,14,27,23.40
2008,08,15,14,28,23.40
2008,08,15,14,29,23.50
2008,08,15,14,30,23.50
2008,08,15,14,31,23.60
2008,08,15,14,32,23.70
2008,08,15,14,33,23.70
2008,08,15,14,34,23.80
2008,08,15,14,35,23.80
2008,08,15,14,36,23.90
2008,08,15,14,37,24.00
2008,08,15,14,38,24.00
2008,08,15,14,39,24.10
2008,08,15,14,40,24.20
2008,08,15,14,41,24.30
2008,08,15,14,42,24.40
2008,08,15,14,43,24.50
2008,08,15,14,44,24.60
2008,08,15,14,45,24.80
2008,08,15,14,46,24.90
2008,08,15,14,47,25.10
2008,08,15,14,48,25.30
2008,08,15,14,49,25.50
2008,08,15,14,50,25.60
2008,08,15,14,51,25.80
2008,08,15,14,52,25.90
2008,08,15,14,53,25.90
2008,08,15,14,54,25.90
2008,08,15,14,55,25.90
2008,08,15,14,56,25.90
2008,08,15,14,57,25.90
2008,08,15,14,58,25.90
2008,08,15,14,59,25.90
2008,08,15,15,00,25.80
2008,08,15,15,01,25.60
2008,08,15,15,02,25.60
2008,08,15,15,03,25.50
2008,08,15,15,04,25.40
2008,08,15,15,05,25.40
2008,08,15,15,06,25.30
2008,08,15,15,07,25.20
2008,08,15,15,08,25.20
2008,08,15,15,09,25.20
2008,08,15,15,10,25.20
2008,08,15,15,11,25.20
2008,08,15,15,12,25.30
2008,08,15,15,13,25.30
2008,08,15,15,14,25.40
2008,08,15,15,15,25.50
2008,08,15,15,16,25.60
2008,08,15,15,17,25.70
2008,08,15,15,18,25.70
2008,08,15,15,19,25.80
2008,08,15,15,20,25.80
2008,08,15,15,21,25.80
2008,08,15,15,22,25.80
2008,08,15,15,23,25.80
2008,08,15,15,24,25.80
2008,08,15,15,25,25.70
2008,08,15,15,26,25.70
2008,08,15,15,27,25.60
2008,08,15,15,28,25.50
2008,08,15,15,29,25.40
2008,08,15,15,30,25.40
2008,08,15,15,31,25.30
2008,08,15,15,32,25.30
2008,08,15,15,33,25.30
2008,08,15,15,34,25.30
2008,08,15,15,35,25.30
2008,08,15,15,36,25.30
2008,08,15,15,37,25.20
2008,08,15,15,38,25.10
2008,08,15,15,39,25.10
2008,08,15,15,40,25.10
2008,08,15,15,41,25.00
2008,08,15,15,42,25.00
2008,08,15,15,43,25.00
2008,08,15,15,44,25.00
2008,08,15,15,45,25.10
2008,08,15,15,46,25.10
2008,08,15,15,47,25.10
2008,08,15,15,48,25.20
2008,08,15,15,49,25.20
2008,08,15,15,50,25.30
2008,08,15,15,51,25.30
2008,08,15,15,52,25.40
2008,08,15,15,53,25.40
2008,08,15,15,54,25.40
2008,08,15,15,55,25.50
2008,08,15,15,56,25.50
2008,08,15,15,57,25.50
2008,08,15,15,58,25.40
2008,08,15,15,59,25.40
2008,08,15,16,00,25.40
2008,08,15,16,01,25.40
2008,08,15,16,02,25.30
2008,08,15,16,03,25.30
2008,08,15,16,04,25.30
2008,08,15,16,05,25.30
2008,08,15,16,06,25.40
2008,08,15,16,07,25.40
2008,08,15,16,08,25.50
2008,08,15,16,09,25.60
2008,08,15,16,10,25.70
2008,08,15,16,11,25.80
2008,08,15,16,12,25.90
2008,08,15,16,13,26.00
2008,08,15,16,14,26.10
2008,08,15,16,15,26.30
2008,08,15,16,16,26.30
2008,08,15,16,17,26.30
2008,08,15,16,18,26.20
2008,08,15,16,19,26.10
2008,08,15,16,20,26.00
2008,08,15,16,21,25.90
2008,08,15,16,22,25.90
2008,08,15,16,23,25.90
2008,08,15,16,24,25.90
2008,08,15,16,25,25.90
2008,08,15,16,26,26.00
2008,08,15,16,27,26.10
2008,08,15,16,28,26.20
2008,08,15,16,29,26.20
2008,08,15,16,30,26.20
2008,08,15,16,31,26.30
2008,08,15,16,32,26.30
2008,08,15,16,33,26.30
2008,08,15,16,34,26.30
2008,08,15,16,35,26.30
2008,08,15,16,36,26.30
2008,08,15,16,37,26.30
2008,08,15,16,38,26.40
2008,08,15,16,39,26.50
2008,08,15,16,40,26.60
2008,08,15,16,41,26.60
2008,08,15,16,42,26.70
2008,08,15,16,43,26.80
2008,08,15,16,44,26.80
2008,08,15,16,45,26.90
2008,08,15,16,46,26.90
2008,08,15,16,47,27.00
2008,08,15,16,48,27.10
2008,08,15,16,49,27.20
2008,08,15,16,50,27.20
2008,08,15,16,51,27.20
2008,08,15,16,52,27.20
2008,08,15,16,53,27.20
2008,08,15,16,54,27.20
2008,08,15,16,55,27.20
2008,08,15,16,56,27.00
2008,08,15,16,57,26.60
2008,08,15,16,58,26.20
2008,08,15,16,59,25.80
2008,08,15,17,00,25.50
2008,08,15,17,01,25.30
2008,08,15,17,02,25.10
2008,08,15,17,03,25.00
2008,08,15,17,04,24.90
2008,08,15,17,05,24.80
2008,08,15,17,06,24.80
2008,08,15,17,07,24.80
2008,08,15,17,08,24.70
2008,08,15,17,09,24.70
2008,08,15,17,10,24.80
2008,08,15,17,11,24.90
2008,08,15,17,12,24.90
2008,08,15,17,13,25.00
2008,08,15,17,14,25.10
2008,08,15,17,15,25.10
2008,08,15,17,16,25.20
2008,08,15,17,17,25.20
2008,08,15,17,18,25.20
2008,08,15,17,19,25.30